Location: Hermaringen
(48.5952°N, 10.2585°E)
Time: 00:58:25
(UTC+00:00)

Tiros 1 - Visible Passes

Search period start: 07 February 2026 00:00
Search period end: 17 February 2026 00:00
Orbit: 618 x 649 km, 48.4° (Epoch: 6 February)

Date Brightness Start Highest point End Pass type
(mag) Time Alt. Az. Time Alt. Az. Time Alt. Az.
7 Feb 9.2 18:01:01 10° W 18:04:37 23° SW 18:08:13 10° SSE visible
8 Feb 9.9 18:23:53 10° WSW 18:25:50 13° SW 18:27:47 10° SSW visible
9 Feb 9.2 17:02:22 10° W 17:06:12 27° SW 17:10:02 10° SSE visible
10 Feb 9.9 17:24:50 10° WSW 17:27:28 15° SW 17:30:07 10° S visible
